View from above orbital plane
|
View from above satellite
|
Ground track
|
The orbit data is extracted from the following two-line orbital elements,
1 00047U 60007C 21018.83361705 -.00000035 00000-0 17259-4 0 9996
2 00047 66.6668 299.0697 0223524 147.3061 214.2111 14.42126388165736
Epoch (UTC): | 18 January 2021 20:00:24 |
Eccentricity: | 0.0223524 |
inclination: | 66.6668° |
perigee height: | 592 km |
apogee height: | 911 km |
right ascension of ascending node: | 299.0697° |
argument of perigee: | 147.3061° |
revolutions per day: | 14.42126388 |
mean anomaly at epoch: | 214.2111° |
orbit number at epoch: | 16573 |
The dashed part of the orbit path shows where the satellite is in the earth's shadow,
|
|